Tatalina, AK

6:23 AM AKDT on May 27, 2017 (GMT -0800)
Tatalina

Weather History for PATL - January, 2013

Change the Weather History Date:

Friday, January 11, 2013

  Actual Average Record
Temperature  
Mean Temperature 18 °F -  
Max Temperature 23 °F 6 °F 36 °F (1997)
Min Temperature 14 °F -1 °F -25 °F (2005)
Degree Days  
Heating Degree Days 46    
Moisture  
Dew Point 17 °F    
Average Humidity 98    
Maximum Humidity 100    
Minimum Humidity 91    
Precipitation  
Precipitation 0.02 in - - ()
Sea Level Pressure  
Sea Level Pressure 30.00 in    
Wind  
Wind Speed 4 mph (ENE)    
Max Wind Speed 7 mph    
Max Gust Speed -    
Visibility 5 miles    
Events Fog , Snow    
Averages and records for this station are not official NWS values.
T = Trace of Precipitation, MM = Missing Value Source: NWS Daily Summary

Daily Weather History Graph

Daily Weather History Graph

Search for Another Location

Airport or City:

Trip Planner

Search our weather history database for the weather conditions in past years. The results will help you decide how hot, cold, wet, or windy it might be!

Date:

Astronomy

Jan. 11, 2013 Rise Set
Actual Time 10:43 AM AKST 4:20 PM AKST
Civil Twilight 9:40 AM AKST 5:24 PM AKST
Nautical Twilight 8:38 AM AKST 6:26 PM AKST
Astronomical Twilight 7:42 AM AKST 7:21 PM AKST
Moon 10:02 AM AKST (1/11) 5:20 PM AKST (1/11)
Length of Visible Light 7h 44m
Length of Day
5h 37m
New Moon, 0% of the Moon is Illuminated
Jan 11
New Moon
Jan 18
First Quarter
Jan 26
Full
Feb 3
Last Quarter
Feb 9
New

Hourly Weather History & Observations

Time (AKST) Temp. Windchill Dew Point Humidity Pressure Visibility Wind Dir Wind Speed Gust Speed Precip Events Conditions
12:55 AM 19.0 °F 13.9 °F 18.0 °F 96% 29.82 in 10.0 mi ENE 3.5 mph - N/A   Overcast
1:55 AM 18.3 °F 11.5 °F 18.3 °F 100% 29.83 in 10.0 mi NNW 4.6 mph - N/A   Overcast
3:46 AM 19.4 °F - 19.4 °F 100% 29.87 in 5.0 mi ESE 2.3 mph - N/A Snow Light Snow
3:55 AM 19.4 °F 14.3 °F 18.5 °F 96% 29.86 in 4.0 mi NE 3.5 mph - N/A Snow Light Snow
4:26 AM 19.4 °F 12.8 °F 19.4 °F 100% 29.87 in 1.8 mi NE 4.6 mph - N/A Snow Light Snow
4:55 AM 19.4 °F 12.8 °F 19.4 °F 100% 29.78 in 1.2 mi NNE 4.6 mph - N/A Snow Snow
5:06 AM 19.4 °F 10.4 °F 19.4 °F 100% 29.86 in 0.8 mi NNE 6.9 mph - N/A Snow Snow
5:26 AM 19.4 °F 11.5 °F 19.4 °F 100% 29.86 in 1.2 mi Variable 5.8 mph - N/A Snow Snow
5:55 AM 19.2 °F 10.2 °F 18.7 °F 98% 29.86 in 1.2 mi NE 6.9 mph - N/A Snow Snow
6:46 AM 17.6 °F 10.7 °F 17.6 °F 100% 29.87 in 1.2 mi NNE 4.6 mph - N/A Snow Snow
6:55 AM 18.0 °F 11.1 °F 17.2 °F 97% 29.88 in 1.5 mi Variable 4.6 mph - N/A Snow Snow
7:26 AM 17.6 °F 10.7 °F 17.6 °F 100% 29.89 in 0.8 mi NNE 4.6 mph - N/A Snow Snow
7:46 AM 17.6 °F - 17.6 °F 100% 29.90 in 1.0 mi Variable 1.2 mph - N/A Snow Snow
7:55 AM 17.6 °F - 17.6 °F 100% 29.82 in 1.2 mi Variable 1.2 mph - N/A Snow Snow
8:06 AM 17.6 °F - 17.6 °F 100% 29.91 in 1.8 mi South 2.3 mph - N/A Snow Light Snow
8:26 AM 17.6 °F - 15.8 °F 93% 29.91 in 1.8 mi South 1.2 mph - N/A Snow Light Snow
8:55 AM 17.6 °F - 16.9 °F 97% 29.93 in 1.5 mi ENE 2.3 mph - 0.00 in Snow Light Snow
9:26 AM 17.6 °F - 17.6 °F 100% 29.94 in 1.2 mi Variable 1.2 mph - N/A Snow Snow
9:46 AM 17.6 °F - 17.6 °F 100% 29.94 in 2.0 mi WSW 2.3 mph - N/A Snow Light Snow
9:55 AM 17.6 °F 10.7 °F 16.9 °F 97% 29.95 in 2.0 mi SSW 4.6 mph - 0.00 in Snow Light Snow
10:06 AM 17.6 °F 12.3 °F 17.6 °F 100% 29.96 in 10.0 mi SW 3.5 mph - N/A Snow Light Snow
10:26 AM 17.6 °F 12.3 °F 17.6 °F 100% 29.97 in 10.0 mi SSW 3.5 mph - N/A Snow Light Snow
10:47 AM 17.6 °F 10.7 °F 17.6 °F 100% 29.99 in 10.0 mi South 4.6 mph - N/A   Mostly Cloudy
10:55 AM 17.8 °F 12.5 °F 17.2 °F 98% 29.99 in 10.0 mi SSW 3.5 mph - N/A   Mostly Cloudy
11:27 AM 17.6 °F 10.7 °F 17.6 °F 100% 30.01 in 10.0 mi South 4.6 mph - N/A   Mostly Cloudy
11:55 AM 18.1 °F 12.9 °F 17.6 °F 98% 30.02 in 10.0 mi WSW 3.5 mph - N/A   Mostly Cloudy
12:55 PM 19.8 °F 14.7 °F 19.4 °F 99% 30.06 in 10.0 mi SW 3.5 mph - 0.00 in   Overcast
1:55 PM 22.1 °F 15.9 °F 21.9 °F 99% 30.09 in 10.0 mi SSW 4.6 mph - 0.00 in   Mostly Cloudy
2:55 PM 22.6 °F 16.5 °F 22.5 °F 99% 30.11 in 10.0 mi SSE 4.6 mph - 0.02 in   Mostly Cloudy
3:47 PM 23.0 °F 18.4 °F 21.2 °F 93% 30.11 in 10.0 mi WSW 3.5 mph - N/A   Scattered Clouds
3:55 PM 22.1 °F 17.4 °F 21.9 °F 99% 30.12 in 10.0 mi SW 3.5 mph - N/A   Partly Cloudy
4:27 PM 21.2 °F 16.4 °F 21.2 °F 100% 30.12 in 10.0 mi SW 3.5 mph - N/A   Mostly Cloudy
4:55 PM 18.9 °F - 17.8 °F 96% 30.13 in 10.0 mi Variable 1.2 mph - 0.00 in   Mostly Cloudy
5:55 PM 15.8 °F 10.2 °F 14.9 °F 96% 30.15 in 10.0 mi NNE 3.5 mph - N/A   Mostly Cloudy
6:55 PM 16.3 °F 9.2 °F 14.2 °F 91% 30.14 in 10.0 mi NNE 4.6 mph - N/A   Mostly Cloudy
7:07 PM 15.8 °F 10.2 °F 14.0 °F 93% 30.15 in 10.0 mi NE 3.5 mph - N/A   Partly Cloudy
7:47 PM 14.0 °F 6.5 °F 12.2 °F 93% 30.16 in 10.0 mi NE 4.6 mph - N/A   Mostly Cloudy
7:55 PM 14.0 °F 6.5 °F 13.1 °F 96% 30.15 in 7.0 mi NE 4.6 mph - N/A   Mostly Cloudy
8:07 PM 14.0 °F 5.1 °F 14.0 °F 100% 30.15 in 1.8 mi NNE 5.8 mph - N/A   Overcast
8:27 PM 15.8 °F 8.6 °F 14.0 °F 93% 30.05 in 2.5 mi NNE 4.6 mph - N/A   Mostly Cloudy
8:55 PM 14.4 °F 8.6 °F 12.7 °F 93% 30.16 in 1.5 mi ENE 3.5 mph - N/A   Overcast
9:27 PM 14.0 °F 5.1 °F 14.0 °F 100% 30.13 in 5.0 mi NE 5.8 mph - N/A   Overcast
9:47 PM 15.8 °F 7.2 °F 15.8 °F 100% 30.11 in 2.5 mi Variable 5.8 mph - N/A   Overcast
9:55 PM 16.0 °F 7.4 °F 15.4 °F 98% 30.11 in 1.8 mi Variable 5.8 mph - N/A   Mostly Cloudy
10:27 PM 15.8 °F 6.1 °F 15.8 °F 100% 30.09 in 0.8 mi NE 6.9 mph - N/A Fog Light Freezing Fog
10:55 PM 16.2 °F 7.6 °F 15.3 °F 96% 30.09 in 0.8 mi NE 5.8 mph - N/A Fog Light Freezing Fog
11:47 PM 17.6 °F 10.7 °F 15.8 °F 93% 30.07 in 1.0 mi ENE 4.6 mph - N/A Fog Light Freezing Fog
11:55 PM 15.8 °F 8.6 °F 15.8 °F 100% 29.97 in 1.0 mi ENE 4.6 mph - N/A   Mist